Flag for France Weather past 2 weeks in Boulogne-Billancourt, France

Now
41 °F

Light rain. Partly sunny.


Feels Like: 31 °F
Forecast: 25 / 36 °F
Wind: 22 mph from Northwest

Location: Paris-Orly

Current Time: Dec 27, 2014 at 10:34:32 AM

Latest Report: Dec 27, 2014 at 10:00 AM


Visibility: N/A

Pressure: 29.62 "Hg

Humidity: 81%

Dew point: 36 °F

Location of Boulogne-BillancourtLocation

Historic Weather in Boulogne-Billancourt — Graph

°F

Boulogne-Billancourt temperature yesterday

Maximum temperature yesterday: 41 °F (at 12:30 PM)
Minimum temperature yesterday: 32 °F (at 3:00 AM)
Average temperature yesterday: 37 °F

Past Weeks' High & Low Weather Summary

 TemperatureHumidityPressure
High57 °F (Dec 18, 12:00 PM)100% (Dec 12, 10:00 PM)30.57 "Hg (Dec 12, 10:00 PM)
Low30 °F (Dec 14, 5:00 AM)62% (Dec 16, 3:00 PM)29.56 "Hg (Dec 27, 6:00 AM)
Average45 °F88%30.15 "Hg
* Reported Dec 12 9:00 AM — Dec 27 9:30 AM, Boulogne-Billancourt, Weather by CustomWeather, © 2014

Note: Actual official high and low records may vary slightly from our data, if they occured in-between our weather recording intervals... More about our weather records

Advertising

Boulogne-Billancourt weather history for previous 24 hours

 ConditionsComfort  
Time TempWeatherWind HumidityBarometerVisibility
9:30 AM
Dec 27
41 °FLight rain. Partly sunny.22 mph81%29.59 "HgN/A
9:00 AM41 °FLight rain. Broken clouds.26 mph81%29.59 "HgN/A
8:30 AM41 °FLight rain. Passing clouds.23 mph76%29.59 "HgN/A
8:00 AM41 °FLight rain. Passing clouds.21 mph81%29.59 "HgN/A
7:30 AM43 °FLight rain. Partly cloudy.25 mph71%29.59 "HgN/A
7:00 AM43 °FLight rain. Partly cloudy.24 mph81%29.56 "HgN/A
6:30 AM45 °FLight rain. Partly cloudy.20 mph81%29.56 "HgN/A
6:00 AM46 °FLight rain. Partly cloudy.20 mph76%29.56 "HgN/A
5:35 AM48 °FLight rain. Partly cloudy.21 mph76%29.59 "HgN/A
4:30 AM48 °FPartly cloudy.23 mph82%29.62 "HgN/A
4:00 AM48 °FPartly cloudy.21 mph87%29.65 "HgN/A
3:30 AM46 °FPassing clouds.18 mph93%29.68 "HgN/A
3:00 AM46 °FPassing clouds.14 mph93%29.71 "HgN/A
2:30 AM45 °FPassing clouds.15 mph93%29.74 "HgN/A
2:00 AM45 °FPassing clouds.14 mph87%29.80 "HgN/A
1:30 AM43 °FPassing clouds.17 mph93%29.83 "HgN/A
1:00 AM41 °FLight rain. Passing clouds.16 mph93%29.86 "Hg6 mi
12:30 AM41 °FLight rain. Passing clouds.15 mph93%29.92 "Hg6 mi
12:00 AM39 °FLight rain. Passing clouds.17 mph93%29.95 "Hg6 mi
11:30 PM
Dec 26
39 °FLight rain. Passing clouds.15 mph93%29.98 "Hg6 mi
11:00 PM39 °FLight rain. Passing clouds.16 mph93%30.04 "Hg6 mi
10:30 PM39 °FLight rain. Passing clouds.15 mph93%30.07 "Hg5 mi
10:00 PM39 °FLight rain. Passing clouds.14 mph93%30.09 "Hg4 mi
9:30 PM39 °FLight rain. Passing clouds.12 mph93%30.12 "Hg4 mi
9:00 PM39 °FLight rain. Partly cloudy.12 mph93%30.18 "Hg5 mi
8:30 PM39 °FLight rain. Partly cloudy.10 mph93%30.21 "Hg4 mi
8:00 PM39 °FLight rain. Passing clouds.10 mph93%30.24 "Hg4 mi
7:30 PM39 °FLight rain. Passing clouds.10 mph93%30.27 "Hg4 mi
7:00 PM39 °FPassing clouds.9 mph93%30.27 "HgN/A
6:30 PM39 °FPassing clouds.7 mph93%30.30 "HgN/A
6:00 PM39 °FPartly cloudy.6 mph93%30.30 "HgN/A
5:30 PM39 °FPassing clouds.5 mph93%30.33 "HgN/A
5:00 PM41 °FPartly cloudy.6 mph87%30.33 "HgN/A
4:30 PM41 °FPartly sunny.6 mph81%30.36 "HgN/A
4:00 PM41 °FBroken clouds.7 mph81%30.36 "HgN/A
3:30 PM41 °FSunny.8 mph81%30.36 "Hg10 mi
3:00 PM41 °FSunny.8 mph87%30.39 "Hg10 mi
2:30 PM41 °FSunny.6 mph81%30.42 "Hg10 mi
2:00 PM41 °FSunny.3 mph87%30.42 "Hg10 mi
1:30 PM41 °FSunny.5 mph81%30.42 "Hg10 mi
1:00 PM41 °FSunny.3 mph87%30.45 "Hg10 mi
12:30 PM41 °FSunny.3 mph87%30.45 "Hg10 mi
12:00 PM39 °FPassing clouds.3 mph87%30.48 "HgN/A
11:30 AM39 °FSunny.3 mph87%30.48 "Hg10 mi
11:00 AM37 °FBroken clouds.3 mph93%30.48 "HgN/A
10:30 AM37 °FBroken clouds.2 mph93%30.48 "HgN/A
10:00 AM36 °FBroken clouds.3 mph93%30.48 "HgN/A
Weather by CustomWeather, © 2014

See weather overviewHow to use our weather pages